Header for Extended Forecast Station List Page

Search by: ID | Name | Date | Parm | Value | Avg | % Avg
Sort by: ID | Name | Date | Parm | Value | Avg | % Avg

Enter search or view all records.

Click on id for station plot
#IDNameDateParmValueAvg% Avg
0HWRI1BIG LOST-AT HOWELL RANCH NEAR CHILLY02-12-2018DISCHARGE (KAF)10084120
1MACI1BIG LOST-MACKAY RESERVOIR NEAR MACKAY02-12-2018INFLOW (KAF)8784104
2HALI1BIG WOOD-AT HAILEY02-12-2018DISCHARGE (KAF)167144116
3MAGI1BIG WOOD-MAGIC DAM02-12-2018INFLOW (KAF)15319479
4BITM8BITTERROOT-NEAR MISSOULA02-12-2018DISCHARGE (KAF)1053838126
5BONM8BLACKFOOT-NEAR BONNER02-12-2018DISCHARGE (KAF)992570174
6BIGI1BOISE-AT GLENWOOD BRIDGE02-12-2018DISCHARGE (KAF)31033393
7LUCI1BOISE-LUCKY PEAK DAM02-12-2018INFLOW (KAF)841MM
8PARI1BOISE-NEAR PARMA02-12-2018DISCHARGE (KAF)35441086
9HOTI1BRUNEAU-NEAR HOT SPRINGS02-12-2018DISCHARGE (KAF)10315766
10BULO3BULLY CREEK-BULLY CREEK DAM02-12-2018INFLOW (KAF)7983
11BUDW1BUMPING-BUMPING LAKE DAM02-12-2018INFLOW (KAF)9786113
12CHDW1CHELAN-LAKE CHELAN DAM02-12-2018INFLOW (KAF)693629110
13ABOM8CLARK FORK-ABOVE MISSOULA02-12-2018DISCHARGE (KAF)15821047151
14DLGM8CLARK FORK-AT DEER LODGE02-12-2018DISCHARGE (KAF)707890
15SRGM8CLARK FORK-AT ST REGIS02-12-2018DISCHARGE (KAF)33822608130
16BELM8CLARK FORK-BELOW MISSOULA02-12-2018DISCHARGE (KAF)26351904138
17CABI1CLARK FORK-CABINET GORGE DAM02-12-2018INFLOW (KAF)86027268118
18NOXM8CLARK FORK-NOXON RAPIDS DAM02-12-2018INFLOW (KAF)77716928112
19DRMM8CLARK FORK-NR DRUMMOND02-12-2018DISCHARGE (KAF)265MM
20CLUW1CLE ELUM-CLE ELUM LAKE02-12-2018INFLOW (KAF)310293106
21ORFI1CLEARWATER-AT OROFINO02-12-2018DISCHARGE (KAF)44633807117
22SPDI1CLEARWATER-AT SPALDING02-12-2018DISCHARGE (KAF)69516013116
23COEI1COEUR D ALENE-COEUR D ALENE LAKE02-12-2018INFLOW (KAF)31812774115
24CIBW1COLUMBIA-AT INTL BOUNDARY02-12-2018DISCHARGE (KAF)24923MM
25BONO3COLUMBIA-BONNEVILLE DAM02-12-2018INFLOW (KAF)5622654527103
26CHJW1COLUMBIA-CHIEF JOSEPH DAM02-12-2018INFLOW (KAF)3019527019112
27GCDW1COLUMBIA-GRAND COULEE DAM02-12-2018INFLOW (KAF)2991328033107
28JDAO3COLUMBIA-JOHN DAY DAM02-12-2018INFLOW (KAF)5467252950103
29MCDW1COLUMBIA-MCNARY DAM02-12-2018INFLOW (KAF)5256050349104
30PRWW1COLUMBIA-PRIEST RAPIDS DAM02-12-2018INFLOW (KAF)3369330412111
31RRHW1COLUMBIA-ROCKY REACH DAM02-12-2018INFLOW (KAF)3252229102112
32TDAO3COLUMBIA-THE DALLES DAM02-12-2018INFLOW (KAF)5513252062106
33WANW1COLUMBIA-WANAPUM DAM02-12-2018INFLOW (KAF)3370029913113
34WELW1COLUMBIA-WELLS DAM02-12-2018INFLOW (KAF)3202428669112
35DEDI1DEADWOOD-NEAR LOWMAN02-12-2018INFLOW (KAF)10195106
36MODO3DESCHUTES-AT MOODY NR BIGGS02-12-2018DISCHARGE (KAF)1472155195
37ARDW1ENTIAT-NEAR ARDENVOIR02-12-2018DISCHARGE (KAF)144122119
38CHEI1FALL RIVER-NEAR CHESTER02-12-2018DISCHARGE (KAF)313263119
39CFMM8FLATHEAD-AT COLUMBIA FALLS02-12-2018DISCHARGE (KAF)38192938130
40KERM8FLATHEAD-KERR DAM02-12-2018INFLOW (KAF)45013733121
41TRYO3GRANDE RONDE-TROY02-12-2018DISCHARGE (KAF)11891188100
42REXI1HENRYS FORK-AT REXBURG02-12-2018DISCHARGE (KAF)745670111
43ANTI1HENRYS FORK-AT ST. ANTHONY02-12-2018DISCHARGE (KAF)655577113
44IPDI1HENRYS FORK-ISLAND PARK DAM02-12-2018INFLOW (KAF)198171116
45HODO3HOOD-NEAR TUCKER BRIDGE02-12-2018DISCHARGE (KAF)26628095
46SERO3JOHN DAY-AT SERVICE CK02-12-2018DISCHARGE (KAF)66289774
47KADW1KACHESS-KACHESS DAM02-12-2018INFLOW (KAF)10196105
48LAUW1KETTLE-AT LAURIER02-12-2018DISCHARGE (KAF)1308132499
49PITW1KLICKITAT-NEAR PITT02-12-2018DISCHARGE (KAF)48553092
50BFEI1KOOTENAI-AT BONNERS FERRY02-12-2018STAGE (FT)MMM
51LEOI1KOOTENAI-AT LEONIA02-12-2018DISCHARGE (KAF)41283378122
52LYDM8KOOTENAI-LIBBY DAM02-12-2018INFLOW (KAF)33313205104
53LWRI1LITTLE WOOD-LITTLE WOOD DAM02-12-2018INFLOW (KAF)436468
54BERO3MALHEUR-AGENCY VALLEY DAM02-12-2018INFLOW (KAF)305258
55VALO3MALHEUR-NEAR VALE02-12-2018DISCHARGE (KAF)466473
56WRMO3MALHEUR-WARM SPRINGS DAM02-12-2018INFLOW (KAF)437458
57MYKO3MCKAY CREEK-NEAR PILOT ROCK02-12-2018DISCHARGE (KAF)4537120
58PATW1METHOW-NEAR PATEROS02-12-2018DISCHARGE (KAF)685568121
59WGCM8MF FLATHEAD-NEAR WEST GLACIER02-12-2018DISCHARGE (KAF)12591005125
60CLFW1NACHES-NEAR CLIFFDEL02-12-2018DISCHARGE (KAF)351301117
61NACW1NACHES-NEAR NACHES02-12-2018DISCHARGE (KAF)543380143
62DWRI1NF CLEARWATER-DWORSHAK DAM02-12-2018INFLOW (KAF)29382439120
63FCFM8NF FLATHEAD-NEAR COLUMBIA FALLS02-12-2018DISCHARGE (KAF)13161041126
64MONO3NF JOHN DAY-AT MONUMENT02-12-2018DISCHARGE (KAF)50962082
65CSDI1NF PAYETTE-CASCADE DAM02-12-2018INFLOW (KAF)38641094
66TONW1OKANOGAN-NEAR TONASKET02-12-2018DISCHARGE (KAF)11721033113
67OWYO3OWYHEE-OWYHEE DAM02-12-2018INFLOW (KAF)19036252
68EMMI1PAYETTE-NEAR EMMETT02-12-2018DISCHARGE (KAF)967104193
69ALFW1PEND OREILLE-ALBENI FALLS DAM02-12-2018INFLOW (KAF)99978798114
70HOPI1PEND OREILLE-PEND OREILLE LAKE NR HOPE02-12-2018LAKE ELEVATION (FT)MMM
71PIHI1PORTNEUF-AT POCATELLO02-12-2018DISCHARGE (KAF)7610275
72PRTI1PRIEST-NEAR PRIEST RIVER02-12-2018DISCHARGE (KAF)756659115
73RCCM8ROCK CREEK-NEAR CLINTON02-12-2018DISCHARGE (KAF)239168142
74WHBI1SALMON-AT WHITEBIRD02-12-2018DISCHARGE (KAF)43123917110
75ARAI1SF BOISE-ANDERSON RANCH DAM02-12-2018INFLOW (KAF)35240986
76HHWM8SF FLATHEAD-HUNGRY HORSE DAM02-12-2018INFLOW (KAF)17461366128
77PLDI1SF SNAKE-PALISADES DAM02-12-2018INFLOW (KAF)22071748126
78SIFI1SNAKE-AB EAGLE ROCK NR IDAHO FALLS02-12-2018DISCHARGE (KAF)28691773162
79AFRI1SNAKE-AMERICAN FALLS RESERVOIR02-12-2018INFLOW (KAF)30582220138
80SNAI1SNAKE-AT BLACKFOOT02-12-2018DISCHARGE (KAF)24981548161
81MILI1SNAKE-AT MILNER02-12-2018DISCHARGE (KAF)990672147
82WEII1SNAKE-AT WEISER02-12-2018DISCHARGE (KAF)4752528290
83SWAI1SNAKE-BELOW SWAN FALLS02-12-2018DISCHARGE (KAF)28052694104
84BRNI1SNAKE-BROWNLEE DAM02-12-2018INFLOW (KAF)5181570791
85IHDW1SNAKE-ICE HARBOR DAM02-12-2018INFLOW (KAF)177521788199
86JLKW4SNAKE-JACKSON LAKE AT DAM02-12-2018INFLOW (KAF)634457139
87LGSW1SNAKE-LITTLE GOOSE DAM02-12-2018INFLOW (KAF)173801779298
88LGDW1SNAKE-LOWER GRANITE DAM02-12-2018INFLOW (KAF)173801776298
89LMNW1SNAKE-LOWER MONUMENTAL DAM02-12-2018INFLOW (KAF)177521803198
90ALPW4SNAKE-NEAR ALPINE02-12-2018DISCHARGE (KAF)14971114134
91ANAW1SNAKE-NEAR ANATONE02-12-2018DISCHARGE (KAF)104301173289
92BFTI1SNAKE-NEAR BLACKFOOT02-12-2018DISCHARGE (KAF)24811539161
93HEII1SNAKE-NEAR HEISE02-12-2018DISCHARGE (KAF)27671725160
94JKSW4SNAKE-NEAR JACKSON02-12-2018DISCHARGE (KAF)1171838140
95SHYI1SNAKE-NEAR SHELLEY02-12-2018DISCHARGE (KAF)27651784155
96LLKW1SPOKANE-AT LONGLAKE02-12-2018INFLOW (KAF)35663327107
97SPOW1SPOKANE-AT SPOKANE02-12-2018DISCHARGE (KAF)3229MM
98SJMI1ST JOE-AT ST MARIES02-12-2018STAGE (FT)MMM
99SATI1ST MARIES-NEAR SANTA02-12-2018DISCHARGE (KAF)173150115
100STRM8ST. REGIS-NEAR ST. REGIS02-12-2018DISCHARGE (KAF)278225124
101TNAW1TEANAWAY-BELOW FORKS02-12-2018DISCHARGE (KAF)156131119
102TEAI1TETON-NEAR ST. ANTHONY02-12-2018DISCHARGE (KAF)264227116
103RILW1TIETON-RIMROCK LAKE NEAR RIMROCK02-12-2018INFLOW (KAF)165146113
104PDTO3UMATILLA-AT PENDLETON02-12-2018DISCHARGE (KAF)213192111
105GIBO3UMATILLA-NEAR GIBBON02-12-2018DISCHARGE (KAF)9184108
106UMAO3UMATILLA-NEAR UMATILLA02-12-2018DISCHARGE (KAF)187156120
107TCHW1WALLA WALLA-NEAR TOUCHET02-12-2018DISCHARGE (KAF)244200122
108WSRI1WEISER-NEAR WEISER02-12-2018DISCHARGE (KAF)32643275
109PESW1WENATCHEE-AT PESHASTIN02-12-2018DISCHARGE (KAF)1111984113
110UNDW1WHITE SALMON-NEAR UNDERWOOD02-12-2018DISCHARGE (KAF)357357100
111RIDI1WILLOW CREEK-RIRIE DAM02-12-2018INFLOW (KAF)274265
112EASW1YAKIMA-AT EASTON02-12-2018DISCHARGE (KAF)122100122
113KIOW1YAKIMA-AT KIONA02-12-2018DISCHARGE (KAF)10271024100
114UMTW1YAKIMA-AT UMTANUM02-12-2018DISCHARGE (KAF)682606113
115KEDW1YAKIMA-KEECHELUS LAKE02-12-2018INFLOW (KAF)117101116
116PARW1YAKIMA-NEAR PARKER02-12-2018DISCHARGE (KAF)779650120